Location: Chittendens Corners
(41.2320°N, 81.4940°W)
Time: 18:46:40
(UTC+00:00)

USA 307 - Pass Details

Date: 29 October 2020
Orbit: 569 x 579 km, 54.0° (Epoch: 23 November)

Event Time Altitude Azimuth Distance (km) Brightness Sun altitude
Rises 23:26:41 0° 313° (NW) 2,788 7.0 -12.2°
Reaches altitude 10° 23:29:06 10° 322° (NW) 1,886 6.0 -12.7°
Maximum altitude 23:33:04 36° 30° (NNE) 925 3.7 -13.4°
Enters shadow 23:35:05 23° 80° (E) 1,249 4.0 -13.8°
